FW9984 Weather Reports


time (UTC)temp
C
wind
direction
speed
KPH
gust
KPH
rain 1hr
cm
rain 24hr
cm
rain mn
cm
humidity
%
barometer
mb
20260504214600 15 0 0.0 3.2 0.00 0.00 0.00 53 1013.7
20260504213057 15 191 0.0 1.6 0.00 0.00 0.00 54 1013.7
20260504211558 16 157 1.6 3.2 0.00 0.00 0.00 52 1013.8
20260504210059 17 184 1.6 9.7 0.00 0.00 0.00 47 1013.8
20260504204608 17 206 1.6 6.4 0.00 0.00 0.00 48 1013.9
20260504203059 18 191 1.6 6.4 0.00 0.00 0.00 48 1013.9
20260504201557 17 199 0.0 6.4 0.00 0.00 0.00 49 1013.7
20260504194604 18 184 1.6 8.0 0.00 0.00 0.00 47 1013.7
20260504193100 18 200 1.6 4.8 0.00 0.00 0.00 47 1013.7
20260504191612 19 149 1.6 6.4 0.00 0.00 0.00 46 1013.6
20260504184559 20 207 3.2 11.3 0.00 0.00 0.00 44 1013.2
20260504183058 20 181 4.8 9.7 0.00 0.00 0.00 45 1013.1
20260504181600 21 115 1.6 9.7 0.00 0.00 0.00 44 1012.9
20260504180057 21 225 3.2 9.7 0.00 0.00 0.00 42 1012.8
20260504174555 22 186 4.8 11.3 0.00 0.00 0.00 40 1012.7
20260504173057 23 141 4.8 12.9 0.00 0.00 0.00 38 1012.6
20260504171558 23 151 3.2 12.9 0.00 0.00 0.00 39 1012.7
20260504160114 25 186 4.8 20.9 0.00 0.00 0.00 37 1012.6
20260504120106 25 80 3.2 16.1 0.00 0.00 0.00 42 1014.7
20260504090112 20 27 3.2 11.3 0.00 0.00 0.00 58 1017.2
20260504081555 18 61 1.6 9.7 0.00 0.00 0.00 59 1017.3
20260504080112 18 33 1.6 4.8 0.00 0.00 0.00 60 1017.2
20260504044620 9 0 0.0 0.0 0.00 0.00 0.00 93 1017.3
20260504043057 7 0 0.0 0.0 0.00 0.00 0.00 94 1017.3
20260504041559 6 0 0.0 0.0 0.00 0.00 0.00 96 1017.3
20260504040112 6 0 0.0 0.0 0.00 0.00 0.00 95 1017.3
20260504034607 6 0 0.0 0.0 0.00 0.00 0.00 95 1017.2
20260504033057 6 0 0.0 0.0 0.00 0.00 0.00 95 1017.2
20260504031559 6 0 0.0 0.0 0.00 0.00 0.00 94 1017.2
20260504030057 6 0 0.0 0.0 0.00 0.00 0.00 94 1017.2
20260504024604 6 0 0.0 0.0 0.00 0.00 0.00 94 1017.3
20260504023057 6 0 0.0 0.0 0.00 0.00 0.00 93 1017.2
20260504021559 6 0 0.0 0.0 0.00 0.00 0.00 93 1017.2
20260504020057 7 0 0.0 0.0 0.00 0.00 0.00 94 1017.3
20260504014559 7 0 0.0 0.0 0.00 0.00 0.00 93 1017.2
20260504013113 7 0 0.0 0.0 0.00 0.00 0.00 92 1017.2
20260504011556 7 0 0.0 0.0 0.00 0.00 0.00 91 1017.1
20260504010105 7 0 0.0 0.0 0.00 0.00 0.00 91 1017.2
20260504004607 7 0 0.0 0.0 0.00 0.00 0.00 90 1017.2
20260504003057 8 0 0.0 0.0 0.00 0.00 0.00 89 1017.2
20260504001558 8 0 0.0 0.0 0.00 0.00 0.00 90 1017.2
20260504000114 8 0 0.0 0.0 0.00 0.00 0.00 89 1017.1
20260503234555 8 0 0.0 0.0 0.00 0.00 0.00 88 1017.2
20260503233057 8 0 0.0 0.0 0.00 0.00 0.00 88 1017.2
20260503231556 8 0 0.0 0.0 0.00 0.00 0.00 86 1017.1
20260503230100 9 0 0.0 0.0 0.00 0.00 0.00 86 1017.1
20260503224555 9 0 0.0 0.0 0.00 0.00 0.00 83 1017.1
20260503223057 10 0 0.0 0.0 0.00 0.00 0.00 83 1017.0
20260503221558 10 0 0.0 0.0 0.00 0.00 0.00 82 1016.9
20260503220122 10 0 0.0 0.0 0.00 0.00 0.00 81 1017.0